Content
SEND FEEDBACK

Daily
Averages
Monthly
Summary
United States of America

LONG PRAIRIE, MINNESOTA


Home > North America > United States > Minnesota
Elevation: 1343 feet     Latitude: 45 58N     Longitude: 094 50W

WEATHER
 
SELECT A DAY
Number of Records: 255,103;   Date Range: 6/9/08 - 11/20/14
 
SHARE

PRINT THIS DATA

[ ← Previous Day ]
WEATHER ALMANAC - FEBRUARY 13, 2013
[ Next Day → ]
[ °C ]   °F
Weather ElementAverageHighLow
Temperature25.4 °F33.8 °F (1:35 pm)12.2 °F (1:35 am)
Dewpoint23.2 °F30.2 °F (3:35 pm)10.4 °F (1:35 am)
Humidity91.7 %100 % (12:35 am)75 % (10:35 am)
Barometer29.64 in29.75 in (12:35 am)29.56 in (4:35 pm)
Wind Speed3.6 mph9.2 mph (11:15 pm)
Weather ElementAverage
Visibility6 mi
Wind DirectionSSE (145.1 °)

Weather ElementTotal
Precipitation0.31 in
Heating Degree Days42 (Base 65)
Averaged from 71 records on February 13, 2013
WEATHER CONDITIONS BREAKOUT
WIND DIRECTION BREAKOUT
WEATHER BY HOUR - FEBRUARY 13, 2013
[ °C ]   °F
Local TimeTemperatureDewpointHumidityBarometerVisibilityWind DirectionWind SpeedGust SpeedPrecipitationEventsConditions
12:35 AM14.0 °F14.0 °F100 %29.75 in7.0 miCalmMostly Cloudy
12:55 AM14.0 °F12.2 °F93 %29.75 in5.0 miSSE (150°)3.5 mphScattered Clouds
1:15 AM14.0 °F14.0 °F100 %29.74 in5.0 miCalmClear
1:35 AM12.2 °F10.4 °F92 %29.74 in7.0 miSSE (160°)3.5 mphMostly Cloudy
1:55 AM12.2 °F10.4 °F92 %29.74 in7.0 miSouth (190°)4.6 mphOvercast
2:15 AM14.0 °F12.2 °F93 %29.73 in7.0 miCalmMostly Cloudy
2:35 AM12.2 °F10.4 °F92 %29.74 in7.0 miCalmScattered Clouds
2:55 AM12.2 °F12.2 °F100 %29.73 in7.0 miSE (140°)3.5 mphClear
3:15 AM12.2 °F10.4 °F92 %29.73 in7.0 miCalmClear
3:35 AM17.6 °F17.6 °F100 %29.72 in10.0 miWSW (240°)5.8 mphMostly Cloudy
3:55 AM21.2 °F19.4 °F93 %29.72 in10.0 miWSW (250°)3.5 mphOvercast
4:15 AM21.2 °F19.4 °F93 %29.71 in10.0 miWSW (240°)5.8 mphMostly Cloudy
4:35 AM21.2 °F19.4 °F93 %29.71 in10.0 miWSW (250°)4.6 mphScattered Clouds
4:55 AM23.0 °F19.4 °F86 %29.70 in10.0 miSW (220°)3.5 mphMostly Cloudy
5:15 AM17.6 °F15.8 °F93 %29.69 in10.0 miCalmOvercast
5:35 AM17.6 °F15.8 °F93 %29.69 in10.0 miCalmOvercast
5:55 AM19.4 °F17.6 °F93 %29.69 in10.0 miSouth (190°)3.5 mphOvercast
6:15 AM19.4 °F17.6 °F93 %29.68 in10.0 miSouth (190°)3.5 mphOvercast
6:35 AM17.6 °F14.0 °F86 %29.68 in10.0 miCalmScattered Clouds
6:55 AM15.8 °F14.0 °F93 %29.67 in7.0 miCalmMostly Cloudy
7:15 AM14.0 °F14.0 °F100 %29.67 in7.0 miCalmMostly Cloudy
7:35 AM14.0 °F14.0 °F100 %29.67 in7.0 miCalmOvercast
7:55 AM17.6 °F17.6 °F100 %29.67 in7.0 miSSW (210°)4.6 mphOvercast
8:15 AM17.6 °F15.8 °F93 %29.67 in7.0 miSSW (210°)4.6 mphScattered Clouds
8:35 AM19.4 °F17.6 °F93 %29.66 in7.0 miSSW (210°)4.6 mphClear
8:55 AM21.2 °F19.4 °F93 %29.66 in10.0 miSW (220°)5.8 mphClear
9:15 AM24.8 °F21.2 °F86 %29.66 in10.0 miSW (220°)8.1 mphClear
9:35 AM26.6 °F21.2 °F80 %29.65 in10.0 miSW (220°)8.1 mphClear
9:55 AM26.6 °F21.2 °F80 %29.64 in10.0 miSW (230°)8.1 mphClear
10:15 AM28.4 °F23.0 °F80 %29.64 in10.0 miSW (230°)6.9 mphClear
10:35 AM30.2 °F23.0 °F75 %29.63 in10.0 miSW (220°)5.8 mphClear
10:55 AM30.2 °F23.0 °F75 %29.63 in10.0 miSW (220°)5.8 mphClear
11:15 AM30.2 °F23.0 °F75 %29.63 in10.0 miSW (220°)6.9 mphClear
11:35 AM30.2 °F24.8 °F80 %29.63 in10.0 miSW (230°)5.8 mphClear
11:55 AM32.0 °F24.8 °F75 %29.63 in10.0 miSW (220°)6.9 mphClear
12:15 PM32.0 °F26.6 °F80 %29.62 in10.0 miSSW (210°)5.8 mphClear
12:35 PM32.0 °F26.6 °F80 %29.61 in10.0 miSW (220°)6.9 mphScattered Clouds
12:55 PM32.0 °F26.6 °F80 %29.61 in10.0 miSSW (210°)8.1 mphOvercast
1:15 PM32.0 °F26.6 °F80 %29.60 in10.0 miSW (230°)6.9 mphOvercast
1:35 PM33.8 °F26.6 °F75 %29.60 in10.0 miSW (230°)5.8 mphOvercast
1:55 PM33.8 °F26.6 °F75 %29.59 in10.0 miSW (220°)5.8 mphOvercast
2:15 PM32.0 °F26.6 °F80 %29.59 in10.0 miSW (230°)6.9 mphOvercast
2:35 PM32.0 °F26.6 °F80 %29.59 in7.0 miSW (230°)4.6 mphOvercast
2:55 PM32.0 °F28.4 °F87 %29.58 in4.0 miSW (220°)5.8 mphSnowLight Snow
3:15 PM32.0 °F28.4 °F87 %29.58 in2.0 miSSW (210°)3.5 mphSnowLight Snow
3:35 PM32.0 °F30.2 °F93 %29.57 in1.0 miCalmSnowLight Snow
3:55 PM32.0 °F30.2 °F93 %29.57 in0.8 miCalmSnowLight Snow
4:15 PM30.2 °F30.2 °F100 %29.57 in0.5 miCalm0.01 inSnowSnow
4:35 PM30.2 °F30.2 °F100 %29.56 in0.5 miCalm0.03 inSnowSnow
4:55 PM30.2 °F30.2 °F100 %29.56 in0.2 miCalm0.05 inSnowSnow
5:15 PM30.2 °F30.2 °F100 %29.56 in0.5 miCalm0.01 inSnowSnow
5:35 PM30.2 °F30.2 °F100 %29.56 in0.8 miCalm0.02 inSnowLight Snow
5:55 PM30.2 °F30.2 °F100 %29.56 in1.0 miCalm0.03 inSnowLight Snow
6:15 PM30.2 °F30.2 °F100 %29.56 in2.0 miCalmSnowLight Snow
6:35 PM30.2 °F30.2 °F100 %29.57 in1.0 miCalm0.01 inSnowSnow
6:55 PM30.2 °F30.2 °F100 %29.57 in1.0 miCalm0.03 inSnowLight Snow
7:15 PM30.2 °F30.2 °F100 %29.58 in0.8 miCalm0.01 inSnowSnow
7:35 PM30.2 °F30.2 °F100 %29.58 in0.5 miCalm0.03 inSnowSnow
7:55 PM30.2 °F30.2 °F100 %29.58 in1.0 miCalm0.04 inSnowLight Snow
8:15 PM30.2 °F30.2 °F100 %29.58 in1.2 miCalm0.01 inSnowLight Snow
8:35 PM30.2 °F30.2 °F100 %29.59 in1.8 miCalm0.01 inSnowLight Snow
8:55 PM30.2 °F30.2 °F100 %29.59 in1.8 miCalm0.02 inSnowLight Snow
9:15 PM30.2 °F30.2 °F100 %29.59 in2.0 miNNW (340°)6.9 mphSnowLight Snow
9:35 PM30.2 °F30.2 °F100 %29.60 in2.0 miNNW (340°)8.1 mphSnowLight Snow
9:55 PM30.2 °F30.2 °F100 %29.61 in3.0 miNNW (330°)6.9 mphSnowLight Snow
10:15 PM30.2 °F30.2 °F100 %29.61 in3.0 miNNW (340°)8.1 mphSnowLight Snow
10:35 PM30.2 °F28.4 °F93 %29.62 in3.0 miNNW (340°)8.1 mphSnowLight Snow
10:55 PM30.2 °F28.4 °F93 %29.63 in4.0 miNNW (330°)5.8 mphSnowLight Snow
11:15 PM30.2 °F28.4 °F93 %29.63 in4.0 miNNW (330°)9.2 mphSnowLight Snow
11:35 PM30.2 °F28.4 °F93 %29.64 in4.0 miNNW (330°)8.1 mphSnowLight Snow
11:55 PM30.2 °F28.4 °F93 %29.65 in4.0 miNNW (330°)9.2 mphSnowLight Snow
Hourly data recorded from K14Y, located miles away from Long Prairie, Minnesota







STORIES FROM OUR PARTNERS